Time,TemperatureF,DewpointF,PressureIn,WindDirection,WindDirectionDegrees,WindSpeedMPH,WindSpeedGustMPH,Humidity,HourlyPrecipIn,Conditions,Clouds,dailyrainin,SoftwareType,DateUTC
2013-01-11 00:11:00,33.5,33.0,29.78,North,6,7.0,13.0,97,0.00,,,0.00,weatherlink.com 1.10,2013-01-11 06:11:00,
2013-01-11 00:26:00,33.5,33.0,29.77,NW,316,7.0,13.0,97,0.00,,,0.00,weatherlink.com 1.10,2013-01-11 06:26:00,
2013-01-11 00:41:00,33.7,33.0,29.76,NW,321,7.0,16.0,97,0.00,,,0.00,weatherlink.com 1.10,2013-01-11 06:41:00,
2013-01-11 00:56:00,33.8,33.0,29.75,NNW,348,9.0,10.0,97,0.00,,,0.00,weatherlink.com 1.10,2013-01-11 06:56:00,
2013-01-11 01:11:00,33.8,33.0,29.74,NW,318,4.0,12.0,97,0.01,,,0.01,weatherlink.com 1.10,2013-01-11 07:11:00,
2013-01-11 01:26:00,34.0,33.0,29.74,NNW,345,3.0,11.0,97,0.01,,,0.01,weatherlink.com 1.10,2013-01-11 07:26:00,
2013-01-11 01:41:00,34.0,33.0,29.73,NW,326,6.0,13.0,97,0.01,,,0.01,weatherlink.com 1.10,2013-01-11 07:41:00,
2013-01-11 01:56:00,34.1,33.0,29.72,NNW,339,9.0,11.0,97,0.01,,,0.01,weatherlink.com 1.10,2013-01-11 07:56:00,
2013-01-11 02:11:00,34.0,33.0,29.72,North,9,4.0,8.0,97,0.00,,,0.01,weatherlink.com 1.10,2013-01-11 08:11:00,
2013-01-11 02:27:00,34.1,34.0,29.71,NW,304,5.0,9.0,98,0.00,,,0.01,weatherlink.com 1.10,2013-01-11 08:27:00,
2013-01-11 02:42:00,34.1,33.0,29.71,North,349,6.0,10.0,97,0.00,,,0.01,weatherlink.com 1.10,2013-01-11 08:42:00,
2013-01-11 02:57:00,34.1,34.0,29.70,North,4,6.0,10.0,98,0.00,,,0.01,weatherlink.com 1.10,2013-01-11 08:57:00,
2013-01-11 03:12:00,34.2,34.0,29.70,North,10,7.0,11.0,98,0.00,,,0.01,weatherlink.com 1.10,2013-01-11 09:12:00,
2013-01-11 03:27:00,34.2,34.0,29.69,NNE,15,5.0,8.0,98,0.00,,,0.01,weatherlink.com 1.10,2013-01-11 09:27:00,
2013-01-11 03:42:00,34.2,34.0,29.68,NNE,23,2.0,10.0,98,0.00,,,0.01,weatherlink.com 1.10,2013-01-11 09:42:00,
2013-01-11 03:57:00,34.2,34.0,29.68,North,10,8.0,8.0,98,0.00,,,0.01,weatherlink.com 1.10,2013-01-11 09:57:00,
2013-01-11 04:12:00,34.1,34.0,29.68,NNW,346,3.0,8.0,98,0.00,,,0.01,weatherlink.com 1.10,2013-01-11 10:12:00,
2013-01-11 04:27:00,34.1,34.0,29.67,NNE,18,2.0,6.0,98,0.00,,,0.01,weatherlink.com 1.10,2013-01-11 10:27:00,
2013-01-11 04:42:00,34.1,34.0,29.66,NE,41,2.0,7.0,98,0.00,,,0.01,weatherlink.com 1.10,2013-01-11 10:42:00,
2013-01-11 04:57:00,34.1,34.0,29.65,NNE,13,6.0,9.0,98,0.01,,,0.02,weatherlink.com 1.10,2013-01-11 10:57:00,
2013-01-11 05:13:00,34.2,34.0,29.65,NNW,331,5.0,8.0,98,0.01,,,0.02,weatherlink.com 1.10,2013-01-11 11:13:00,
2013-01-11 05:27:00,34.2,34.0,29.64,NNW,345,3.0,7.0,98,0.01,,,0.02,weatherlink.com 1.10,2013-01-11 11:27:00,
2013-01-11 05:42:00,34.2,34.0,29.64,NNE,17,2.0,8.0,98,0.01,,,0.02,weatherlink.com 1.10,2013-01-11 11:42:00,
2013-01-11 05:57:00,34.3,34.0,29.63,NNE,27,1.0,8.0,98,0.00,,,0.02,weatherlink.com 1.10,2013-01-11 11:57:00,
2013-01-11 06:12:00,34.3,34.0,29.63,NE,51,3.0,8.0,98,0.00,,,0.02,weatherlink.com 1.10,2013-01-11 12:12:00,
2013-01-11 06:27:00,34.5,34.0,29.62,NNE,32,5.0,11.0,98,0.00,,,0.02,weatherlink.com 1.10,2013-01-11 12:27:00,
2013-01-11 06:42:00,34.6,34.0,29.62,ENE,76,3.0,10.0,98,0.00,,,0.02,weatherlink.com 1.10,2013-01-11 12:42:00,
2013-01-11 06:57:00,34.7,34.0,29.61,North,349,7.0,13.0,98,0.00,,,0.02,weatherlink.com 1.10,2013-01-11 12:57:00,
2013-01-11 07:12:00,34.6,34.0,29.61,NW,317,5.0,10.0,98,0.00,,,0.02,weatherlink.com 1.10,2013-01-11 13:12:00,
2013-01-11 07:27:00,34.6,34.0,29.61,North,11,3.0,11.0,98,0.00,,,0.02,weatherlink.com 1.10,2013-01-11 13:27:00,
2013-01-11 07:42:00,34.5,34.0,29.61,North,6,6.0,8.0,98,0.00,,,0.02,weatherlink.com 1.10,2013-01-11 13:42:00,
2013-01-11 07:57:00,34.4,34.0,29.61,ENE,72,3.0,8.0,98,0.00,,,0.02,weatherlink.com 1.10,2013-01-11 13:57:00,
2013-01-11 08:12:00,34.4,34.0,29.61,North,356,3.0,8.0,98,0.00,,,0.02,weatherlink.com 1.10,2013-01-11 14:12:00,
2013-01-11 08:27:00,34.5,34.0,29.60,North,3,4.0,9.0,98,0.00,,,0.02,weatherlink.com 1.10,2013-01-11 14:27:00,
2013-01-11 08:42:00,34.5,34.0,29.61,NNE,30,2.0,7.0,98,0.00,,,0.02,weatherlink.com 1.10,2013-01-11 14:42:00,
2013-01-11 08:57:00,34.6,34.0,29.60,NNE,32,5.0,7.0,98,0.00,,,0.02,weatherlink.com 1.10,2013-01-11 14:57:00,
2013-01-11 09:12:00,34.9,34.0,29.59,NNW,337,3.0,9.0,98,0.00,,,0.02,weatherlink.com 1.10,2013-01-11 15:12:00,
2013-01-11 09:27:00,35.0,35.0,29.60,NE,40,1.0,7.0,98,0.00,,,0.02,weatherlink.com 1.10,2013-01-11 15:27:00,
2013-01-11 09:42:00,35.2,35.0,29.62,NNE,12,6.0,10.0,98,0.00,,,0.02,weatherlink.com 1.10,2013-01-11 15:42:00,
2013-01-11 09:57:00,35.5,35.0,29.61,NNE,25,6.0,11.0,98,0.00,,,0.02,weatherlink.com 1.10,2013-01-11 15:57:00,
2013-01-11 10:12:00,35.5,35.0,29.61,NNE,19,7.0,11.0,98,0.00,,,0.02,weatherlink.com 1.10,2013-01-11 16:12:00,
2013-01-11 10:27:00,35.5,35.0,29.61,ENE,60,2.0,9.0,98,0.00,,,0.02,weatherlink.com 1.10,2013-01-11 16:27:00,
2013-01-11 10:42:00,35.6,35.0,29.60,NE,42,0.0,8.0,98,0.00,,,0.02,weatherlink.com 1.10,2013-01-11 16:42:00,
2013-01-11 11:12:00,35.7,35.0,29.59,NNE,32,1.0,6.0,98,0.00,,,0.02,weatherlink.com 1.10,2013-01-11 17:12:00,
2013-01-11 11:27:00,35.9,35.0,29.58,NNW,336,2.0,6.0,98,0.00,,,0.02,weatherlink.com 1.10,2013-01-11 17:27:00,
2013-01-11 11:33:00,36.1,35.6,29.58,NNW,338,3.0,6.0,98,0.00,,,0.02,Wunderground v.1.15,2013-01-11 17:33:00,
2013-01-11 11:38:00,36.2,35.7,29.58,NNW,345,2.0,6.0,98,0.00,,,0.02,Wunderground v.1.15,2013-01-11 17:38:00,
2013-01-11 11:44:00,36.3,36.0,29.56,North,349,5.0,7.0,98,0.00,,,0.02,weatherlink.com 1.10,2013-01-11 17:44:00,
2013-01-11 11:49:00,36.4,35.9,29.56,NW,321,4.0,6.0,98,0.00,,,0.02,Wunderground v.1.15,2013-01-11 17:49:00,
2013-01-11 11:55:00,36.5,36.0,29.56,NNW,342,5.0,6.0,98,0.00,,,0.02,Wunderground v.1.15,2013-01-11 17:55:00,
2013-01-11 12:01:00,36.6,36.1,29.55,North,11,4.0,7.0,98,0.00,,,0.02,Wunderground v.1.15,2013-01-11 18:01:00,
2013-01-11 12:06:00,36.7,36.2,29.55,NNW,336,4.0,9.0,98,0.00,,,0.02,Wunderground v.1.15,2013-01-11 18:06:00,
2013-01-11 12:13:00,36.6,36.0,29.55,NNW,338,4.0,9.0,98,0.00,,,0.02,weatherlink.com 1.10,2013-01-11 18:13:00,
2013-01-11 12:19:00,36.6,36.1,29.55,NNW,338,4.0,6.0,98,0.00,,,0.02,Wunderground v.1.15,2013-01-11 18:19:00,
2013-01-11 12:24:00,36.6,36.1,29.55,NNW,347,3.0,7.0,98,0.00,,,0.02,Wunderground v.1.15,2013-01-11 18:24:00,
2013-01-11 12:30:00,36.6,36.1,29.54,NNE,21,4.0,4.0,98,0.00,,,0.02,Wunderground v.1.15,2013-01-11 18:30:00,
2013-01-11 12:36:00,36.8,36.3,29.54,NE,34,3.0,7.0,98,0.00,,,0.02,Wunderground v.1.15,2013-01-11 18:36:00,
2013-01-11 12:42:00,36.8,36.3,29.53,NNE,17,4.0,7.0,98,0.00,,,0.02,Wunderground v.1.15,2013-01-11 18:42:00,
2013-01-11 12:48:00,36.9,36.4,29.53,WNW,293,4.0,7.0,98,0.00,,,0.02,Wunderground v.1.15,2013-01-11 18:48:00,
2013-01-11 12:54:00,36.8,36.3,29.53,NNW,328,3.0,6.0,98,0.00,,,0.02,Wunderground v.1.15,2013-01-11 18:54:00,
2013-01-11 13:00:00,36.8,36.3,29.52,NNE,28,3.0,6.0,98,0.00,,,0.02,Wunderground v.1.15,2013-01-11 19:00:00,
2013-01-11 13:06:00,36.9,36.4,29.53,NNE,22,3.0,6.0,98,0.00,,,0.02,Wunderground v.1.15,2013-01-11 19:06:00,
2013-01-11 13:12:00,36.7,36.2,29.53,NE,46,3.0,6.0,98,0.00,,,0.02,Wunderground v.1.15,2013-01-11 19:12:00,
2013-01-11 13:18:00,36.6,36.1,29.52,NNW,342,3.0,6.0,98,0.00,,,0.02,Wunderground v.1.15,2013-01-11 19:18:00,
2013-01-11 13:23:00,36.6,36.1,29.52,NE,47,3.0,6.0,98,0.00,,,0.02,Wunderground v.1.15,2013-01-11 19:23:00,
2013-01-11 13:29:00,36.5,36.0,29.52,ENE,57,4.0,6.0,98,0.00,,,0.02,Wunderground v.1.15,2013-01-11 19:29:00,
2013-01-11 13:35:00,36.5,36.0,29.52,North,9,4.0,7.0,98,0.00,,,0.02,Wunderground v.1.15,2013-01-11 19:35:00,
2013-01-11 13:40:00,36.5,36.0,29.52,NNE,15,3.0,6.0,98,0.00,,,0.02,Wunderground v.1.15,2013-01-11 19:40:00,
2013-01-11 13:46:00,36.5,36.0,29.51,NNE,19,3.0,6.0,98,0.00,,,0.02,Wunderground v.1.15,2013-01-11 19:46:00,
2013-01-11 13:52:00,36.6,36.1,29.51,NNE,17,2.0,6.0,98,0.00,,,0.02,Wunderground v.1.15,2013-01-11 19:52:00,
2013-01-11 13:57:00,36.6,36.1,29.51,North,359,2.0,6.0,98,0.00,,,0.02,Wunderground v.1.15,2013-01-11 19:57:00,
2013-01-11 14:03:00,36.5,36.0,29.51,NNW,329,3.0,6.0,98,0.00,,,0.02,Wunderground v.1.15,2013-01-11 20:03:00,
2013-01-11 14:08:00,36.5,36.0,29.52,North,11,3.0,6.0,98,0.00,,,0.02,Wunderground v.1.15,2013-01-11 20:08:00,
2013-01-11 14:16:00,36.4,35.9,29.52,NNE,30,2.0,6.0,98,0.00,,,0.02,Wunderground v.1.15,2013-01-11 20:16:00,
2013-01-11 14:22:00,36.4,35.9,29.51,NNE,29,3.0,6.0,98,0.00,,,0.02,Wunderground v.1.15,2013-01-11 20:22:00,
2013-01-11 14:27:00,36.3,35.8,29.51,NE,50,3.0,6.0,98,0.00,,,0.02,Wunderground v.1.15,2013-01-11 20:27:00,
2013-01-11 14:33:00,36.3,35.8,29.51,NE,34,3.0,6.0,98,0.00,,,0.02,Wunderground v.1.15,2013-01-11 20:33:00,
2013-01-11 14:38:00,36.3,35.8,29.50,NNE,16,3.0,6.0,98,0.00,,,0.02,Wunderground v.1.15,2013-01-11 20:38:00,
2013-01-11 14:43:00,36.4,35.9,29.50,North,3,3.0,6.0,98,0.00,,,0.02,Wunderground v.1.15,2013-01-11 20:43:00,
2013-01-11 14:49:00,36.4,35.9,29.50,NE,34,3.0,6.0,98,0.00,,,0.02,Wunderground v.1.15,2013-01-11 20:49:00,
2013-01-11 14:55:00,36.5,36.0,29.50,North,360,4.0,8.0,98,0.00,,,0.02,Wunderground v.1.15,2013-01-11 20:55:00,
2013-01-11 15:01:00,36.6,36.1,29.49,NNW,331,5.0,6.0,98,0.00,,,0.02,Wunderground v.1.15,2013-01-11 21:01:00,
2013-01-11 15:06:00,36.6,36.1,29.49,NW,312,5.0,6.0,98,0.00,,,0.02,Wunderground v.1.15,2013-01-11 21:06:00,
2013-01-11 15:12:00,36.5,36.0,29.49,NW,319,5.0,7.0,98,0.00,,,0.02,Wunderground v.1.15,2013-01-11 21:12:00,
2013-01-11 15:18:00,36.5,36.0,29.49,NW,325,4.0,7.0,98,0.00,,,0.02,Wunderground v.1.15,2013-01-11 21:18:00,
2013-01-11 15:23:00,36.5,36.0,29.49,WNW,300,4.0,6.0,98,0.00,,,0.02,Wunderground v.1.15,2013-01-11 21:23:00,
2013-01-11 15:29:00,36.5,36.0,29.48,NW,308,3.0,8.0,98,0.00,,,0.02,weatherlink.com 1.10,2013-01-11 21:29:00,
2013-01-11 15:43:00,36.5,36.0,29.49,NW,319,7.0,10.0,98,0.00,,,0.02,weatherlink.com 1.10,2013-01-11 21:43:00,
2013-01-11 15:58:00,36.4,36.0,29.48,WNW,291,6.0,9.0,98,0.01,,,0.03,weatherlink.com 1.10,2013-01-11 21:58:00,
2013-01-11 16:13:00,36.3,36.0,29.48,NW,319,3.0,9.0,98,0.01,,,0.03,weatherlink.com 1.10,2013-01-11 22:13:00,
2013-01-11 16:28:00,36.2,36.0,29.48,NNW,329,4.0,7.0,98,0.01,,,0.03,weatherlink.com 1.10,2013-01-11 22:28:00,
2013-01-11 16:43:00,36.3,36.0,29.47,NNW,345,5.0,8.0,98,0.01,,,0.03,weatherlink.com 1.10,2013-01-11 22:43:00,
2013-01-11 16:58:00,36.4,36.0,29.47,NNW,345,3.0,8.0,98,0.00,,,0.03,weatherlink.com 1.10,2013-01-11 22:58:00,
2013-01-11 17:13:00,36.5,36.0,29.46,WNW,285,4.0,7.0,98,0.00,,,0.03,weatherlink.com 1.10,2013-01-11 23:13:00,
2013-01-11 17:28:00,36.5,36.0,29.45,WNW,299,2.0,10.0,98,0.01,,,0.04,weatherlink.com 1.10,2013-01-11 23:28:00,
2013-01-11 17:43:00,36.5,36.0,29.44,WNW,291,3.0,10.0,98,0.01,,,0.04,weatherlink.com 1.10,2013-01-11 23:43:00,
2013-01-11 17:58:00,36.5,36.0,29.43,WNW,293,4.0,8.0,98,0.01,,,0.04,weatherlink.com 1.10,2013-01-11 23:58:00,
2013-01-11 18:13:00,36.8,36.0,29.43,NNW,342,4.0,12.0,98,0.01,,,0.04,weatherlink.com 1.10,2013-01-12 00:13:00,
2013-01-11 18:28:00,36.9,36.0,29.43,NW,314,7.0,13.0,98,0.00,,,0.04,weatherlink.com 1.10,2013-01-12 00:28:00,
2013-01-11 18:43:00,37.1,37.0,29.43,NNW,329,9.0,12.0,98,0.00,,,0.04,weatherlink.com 1.10,2013-01-12 00:43:00,
2013-01-11 18:59:00,37.0,37.0,29.43,NNW,338,7.0,13.0,98,0.00,,,0.04,weatherlink.com 1.10,2013-01-12 00:59:00,
2013-01-11 19:14:00,37.0,37.0,29.42,NW,319,8.0,9.0,98,0.00,,,0.04,weatherlink.com 1.10,2013-01-12 01:14:00,
2013-01-11 19:29:00,36.9,36.0,29.42,NNW,347,6.0,9.0,98,0.00,,,0.04,weatherlink.com 1.10,2013-01-12 01:29:00,
2013-01-11 19:44:00,37.1,37.0,29.42,NW,319,4.0,8.0,98,0.00,,,0.04,weatherlink.com 1.10,2013-01-12 01:44:00,
2013-01-11 20:00:00,37.0,37.0,29.42,NNE,25,2.0,6.0,98,0.00,,,0.04,weatherlink.com 1.10,2013-01-12 02:00:00,
2013-01-11 20:14:00,37.0,37.0,29.42,WNW,285,2.0,6.0,99,0.00,,,0.04,weatherlink.com 1.10,2013-01-12 02:14:00,
2013-01-11 20:29:00,37.8,38.0,29.41,NNE,21,2.0,9.0,99,0.00,,,0.04,weatherlink.com 1.10,2013-01-12 02:29:00,
2013-01-11 20:44:00,38.3,38.0,29.41,NNE,22,5.0,7.0,99,0.00,,,0.04,weatherlink.com 1.10,2013-01-12 02:44:00,
2013-01-11 20:59:00,38.3,38.0,29.40,North,8,4.0,9.0,99,0.00,,,0.04,weatherlink.com 1.10,2013-01-12 02:59:00,
2013-01-11 21:14:00,38.7,39.0,29.40,North,11,6.0,11.0,99,0.01,,,0.05,weatherlink.com 1.10,2013-01-12 03:14:00,
2013-01-11 21:29:00,39.1,39.0,29.40,NNE,13,8.0,15.0,99,0.01,,,0.05,weatherlink.com 1.10,2013-01-12 03:29:00,
2013-01-11 21:44:00,38.7,39.0,29.40,NNE,18,13.0,14.0,99,0.01,,,0.05,weatherlink.com 1.10,2013-01-12 03:44:00,
2013-01-11 21:59:00,38.9,39.0,29.40,NNE,13,12.0,15.0,99,0.01,,,0.05,weatherlink.com 1.10,2013-01-12 03:59:00,
2013-01-11 22:14:00,38.7,39.0,29.40,NE,37,13.0,17.0,99,0.00,,,0.05,weatherlink.com 1.10,2013-01-12 04:14:00,
2013-01-11 22:29:00,38.5,38.0,29.40,NE,48,6.0,18.0,98,0.00,,,0.05,weatherlink.com 1.10,2013-01-12 04:29:00,
2013-01-11 22:44:00,37.9,37.0,29.40,NNE,25,12.0,15.0,98,0.00,,,0.05,weatherlink.com 1.10,2013-01-12 04:44:00,
2013-01-11 22:59:00,37.3,37.0,29.40,ENE,65,7.0,19.0,98,0.00,,,0.05,weatherlink.com 1.10,2013-01-12 04:59:00,
2013-01-11 23:14:00,36.6,36.0,29.41,NE,45,9.0,16.0,98,0.00,,,0.05,weatherlink.com 1.10,2013-01-12 05:14:00,
2013-01-11 23:29:00,36.1,36.0,29.41,NE,46,8.0,16.0,98,0.00,,,0.05,weatherlink.com 1.10,2013-01-12 05:29:00,
2013-01-11 23:44:00,35.5,35.0,29.41,ENE,65,7.0,14.0,98,0.00,,,0.05,weatherlink.com 1.10,2013-01-12 05:44:00,
2013-01-11 23:59:00,35.2,35.0,29.41,ENE,59,7.0,12.0,98,0.00,,,0.05,weatherlink.com 1.10,2013-01-12 05:59:00,